Regional Weather Roundup
Issued by NWS

Home | Current Version | Previous Version | Graphics & Text | Print | Product List | Glossary On
Versions: 1 2 3 4 5 6 7 8 9 10 11 12 13 14 15 16 17 18 19 20 21 22 23 24 25 26 27 28 29 30 31 32 33 34 35 36 37 38 39 40 41 42 43 44 45 46 47 48 49 50
000
ASUS43 KLSX 230907
RWRMO

WEATHER SUMMARY FOR MISSOURI
NATIONAL WEATHER SERVICE SPRINGFIELD MO
400 AM CDT WED JUL 23 2014

NOTE: "FAIR" INDICATES FEW OR NO CLOUDS BELOW 12,000 FEET WITH NO
       SIGNIFICANT WEATHER AND/OR OBSTRUCTIONS TO VISIBILITY.
       CURRENT SKY AND/OR WEATHER CONDITIONS ARE NOT AVAILABLE FOR
       CHILLICOTHE AND FARMINGTON.

MOZ001>031-035>038-043-044-053-054-231000-
...NORTHERN AND WESTERN MISSOURI...

CITY           SKY/WX    TMP DP  RH WIND       PRES   REMARKS
KANSAS CTY INT PTCLDY    75  69  81 NE14      30.10F
KANSAS C DTWN  CLEAR     79  70  74 NE10      30.08F
LEE`S SUMMIT   MOCLDY    78  71  79 N9        30.09F
ST JOSEPH      CLEAR     71  67  87 N6        30.12S
CHILLICOTHE      N/A     74  68  81 VRB5      30.11S
KIRKSVILLE     CLEAR     72  68  87 N10       30.11R

$$
MOZ066>068-077>081-088>096-101>105-231000-
...SOUTHWEST MISSOURI...

CITY           SKY/WX    TMP DP  RH WIND       PRES   REMARKS
SPRINGFIELD    PTCLDY    78  74  87 W3        30.08S
JOPLIN         PTCLDY    79  75  87 MISG      30.08F

$$
MOZ032>034-039>042-045>050-055>058-069>072-231000-
...CENTRAL MISSOURI...

CITY           SKY/WX    TMP DP  RH WIND       PRES   REMARKS
COLUMBIA       CLEAR     80  76  87 N9        30.05S
JEFFERSON CITY MOCLDY    80  78  94 VRB5      30.02S
ROLLA          CLEAR     75  72  90 SW6       30.03F
SEDALIA        CLEAR     79  73  82 N7        30.07S
WHITEMAN AFB   PTCLDY    78  67  70 N9        30.06R
OSAGE BEACH    MOCLDY    75  73  94 CALM      30.04S

$$
MOZ051-052-059>065-231000-
...EAST CENTRAL MISSOURI...

CITY           SKY/WX    TMP DP  RH WIND       PRES   REMARKS
ST LOUIS INTL  CLOUDY    82  73  74 W9        30.00S
SPIRIT OF STL  CLOUDY    79  74  84 CALM      30.00S
ST CHARLES     MOCLDY    77  74  90 CALM      29.99S

$$
MOZ072>076-082>087-097>100-106>115-231000-
...SOUTH CENTRAL AND SOUTHEAST MISSOURI...

CITY           SKY/WX    TMP DP  RH WIND       PRES   REMARKS
CAPE GIRARDEAU PTCLDY    71  68  90 CALM      30.03S FOG
FARMINGTON     CLOUDY    75  68  78 S3        30.07R
POPLAR BLUFF   MOCLDY    72  68  87 S3        30.03F
WEST PLAINS    MOCLDY    73  68  84 SW5       30.08F

$$


USA.gov is the U.S. government's official web portal to all federal, state and local government web resources and services.